History

Records

Pos Player Map Author Time Server Date ▲
#72 gicul Pan's Lucky Jump #08 vksrua123 8.87 - 2025-02-17 17:08
#164 Otto Lucky Jump 19 saifbnas 12.45 - 2025-02-17 17:18
#199 Λ$13ΛĐΛMØ ¯\_(ツ)_/¯ Luckländer V buggeh 12.24 - 2025-02-17 17:22
#162 Λ$13ΛĐΛMØ ¯\_(ツ)_/¯ LUCKY JUMP 252 mageewwy 19.24 - 2025-02-17 17:53
#48 Λc Dr. GummiBear LUCKY JUMP 252 mageewwy 13.74 - 2025-02-17 17:56
#62 Λc Dr. GummiBear Gori LJ #14 yannchri 9.85 - 2025-02-17 18:07
#30 ңя ױ Miron ¬ Λc Lucky Jump 9 saifbnas 9.84 - 2025-02-17 18:17
#48 Nucking Futz Lucky Jump 9 saifbnas 9.91 - 2025-02-17 18:20
#97 Λc Dr. GummiBear Lucky Jump 9 saifbnas 10.23 - 2025-02-17 18:23
#2 ңяױ τιחє Lucky Jump 9 saifbnas 9.63 - 2025-02-17 18:24
#113 Λ$13ΛĐΛMØ ¯\_(ツ)_/¯ New Year LJ Remake ggnoreasonsa 10.39 - 2025-02-17 18:28
#41 Nucking Futz New Year LJ Remake ggnoreasonsa 9.99 - 2025-02-17 18:30
#115 firfuoke New Year LJ Remake ggnoreasonsa 10.50 - 2025-02-17 18:31
#3 ңя ױ Miron ¬ Λc Lucky Jumpero Uno --rudi-- 10.39 - 2025-02-17 18:49
#65 Āłčŏħŏłĭċ Lucky Jumpero Uno --rudi-- 10.86 - 2025-02-17 18:52
#71 Λc Dr. GummiBear Corny LJ #24 mrcornhead 7.66 - 2025-02-17 18:55
#109 ЯびмやĚじ Corny LJ #24 mrcornhead 7.85 - 2025-02-17 18:57
#78 ЯびмやĚじ SpeedFunMini111 - remake fun-team 13.56 - 2025-02-17 19:17
#64 SαDø SpeedFunMini111 - remake fun-team 13.14 - 2025-02-17 19:18
#3 UNITED STATES OF DONALDTRUMPERICA LoL #49 nickland 5.67 - 2025-02-17 19:24
#18 ЯびмやĚじ LoL #49 nickland 6.10 - 2025-02-17 19:27
#90 ЯびмやĚじ Lucky jump no. 253 hermen8 12.66 - 2025-02-17 19:29
#138 absolut LOST Lucky jump no. 253 hermen8 13.44 - 2025-02-17 19:32
#10 ΞאЯє.िסא III Short Stunt 228 fritzlimo 7.56 - 2025-02-17 19:38
#27 в Hauge III Short Stunt 228 fritzlimo 8.44 - 2025-02-17 19:39
#13 UltiNewbieシ III Short Stunt 228 fritzlimo 7.68 - 2025-02-17 19:42
#28 в Hauge Lucky Moh v2 gumayusi 16.61 - 2025-02-17 19:47
#9 ΞאЯє.िסא Lucky Moh v2 gumayusi 11.44 - 2025-02-17 19:49
#14 вιΔsun mbsf Lucky Moh v2 gumayusi 12.12 - 2025-02-17 19:49
#40 orange_;) ңя ױ LJ pedrokazz pedrokazz 12.43 - 2025-02-17 19:59
#59 в Hauge ңя ױ LJ pedrokazz pedrokazz 13.47 - 2025-02-17 20:03
#23 UltiNewbieシ ңя ױ LJ pedrokazz pedrokazz 11.86 - 2025-02-17 20:06
#64 Nova H. +18 ңя ױ LJ pedrokazz pedrokazz 13.67 - 2025-02-17 20:06
#24 ңя ױ Miron ¬ Λc ңя ױ LJ pedrokazz pedrokazz 11.87 - 2025-02-17 20:10
#4 RooK ңя ױ LJ pedrokazz pedrokazz 11.01 - 2025-02-17 20:18
#51 RooK SpeedFunMini111 - remake fun-team 12.86 - 2025-02-17 20:22
#56 Nova H. +18 Lucky Jump 18 saifbnas 9.86 - 2025-02-17 20:30
#189 Runner Lucky Jump 18 saifbnas 12.10 - 2025-02-17 20:33
#7 ңя ױ Miron ¬ Λc LoL #49 nickland 5.92 - 2025-02-17 20:37
#23 wrh*meef LoL #49 nickland 6.27 - 2025-02-17 20:45
#19 RooK LoL #49 nickland 6.14 - 2025-02-17 20:50
#31 ketamine LoL #49 nickland 8.85 - 2025-02-17 20:52
#12 ƒun Ǥהσ๔ι ױңя HR jump lol 107 pedrokazz 12.65 - 2025-02-17 20:58
#37 вιΔsun mbsf HR jump lol 107 pedrokazz 13.26 - 2025-02-17 21:04
#15 UNITED STATES OF DONALDTRUMPERICA HR jump lol 107 pedrokazz 12.83 - 2025-02-17 21:06
#52 UNITED STATES OF DONALDTRUMPERICA Lucky jump no. 289 hermen8 10.66 - 2025-02-17 21:21
#120 Λ RITZYYboost Lucky jump no. 289 hermen8 11.15 - 2025-02-17 21:21
#33 Nova H. +18 Lucky jump no. 289 hermen8 10.58 - 2025-02-17 21:22
#127 garfield42 Lucky jump no. 289 hermen8 11.46 - 2025-02-17 21:27
#125 мαтα. Lucky jump no. 289 hermen8 11.31 - 2025-02-17 21:29
PreviousPage 194Next